| time (UTC) | temp C | wind direction | speed KPH | gust KPH | rain 1hr cm | rain 24hr cm | rain mn cm | humidity % | barometer mb |
| 20260509030045 | 6 | 229 | 1.6 | 3.2 | 0.00 | 0.00 | 0.00 | 51 | 1012.1 |
| 20260509024541 | 6 | 229 | 3.2 | 9.7 | 0.00 | 0.00 | 0.00 | 55 | 1012.0 |
| 20260509023040 | 7 | 0 | 0.0 | 0.0 | 0.00 | 0.00 | 0.00 | 48 | 1011.7 |
| 20260509021547 | 7 | 0 | 0.0 | 0.0 | 0.00 | 0.00 | 0.00 | 45 | 1011.5 |
| 20260509020048 | 7 | 0 | 0.0 | 0.0 | 0.00 | 0.00 | 0.00 | 44 | 1011.1 |
| 20260509014544 | 6 | 0 | 0.0 | 0.0 | 0.00 | 0.00 | 0.00 | 44 | 1011.0 |
| 20260509013044 | 6 | 0 | 0.0 | 0.0 | 0.00 | 0.00 | 0.00 | 44 | 1010.8 |
| 20260509011543 | 6 | 0 | 0.0 | 0.0 | 0.00 | 0.00 | 0.00 | 47 | 1010.6 |
| 20260509010049 | 7 | 0 | 0.0 | 0.0 | 0.00 | 0.00 | 0.00 | 44 | 1010.4 |
| 20260509004550 | 7 | 0 | 0.0 | 0.0 | 0.00 | 0.00 | 0.00 | 40 | 1010.2 |
| 20260509003049 | 8 | 0 | 0.0 | 4.8 | 0.00 | 0.00 | 0.00 | 39 | 1009.9 |
| 20260509001545 | 8 | 0 | 3.2 | 8.0 | 0.00 | 0.00 | 0.00 | 38 | 1009.6 |
| 20260509000049 | 9 | 317 | 3.2 | 8.0 | 0.00 | 0.00 | 0.00 | 37 | 1009.6 |
| 20260508234548 | 10 | 340 | 4.8 | 14.5 | 0.00 | 0.00 | 0.00 | 40 | 1009.4 |
| 20260508233055 | 11 | 308 | 4.8 | 14.5 | 0.00 | 0.00 | 0.00 | 33 | 1009.1 |
| 20260508231546 | 11 | 304 | 8.0 | 17.7 | 0.00 | 0.00 | 0.00 | 32 | 1009.0 |
| 20260508230122 | 11 | 281 | 9.7 | 24.1 | 0.00 | 0.00 | 0.00 | 31 | 1008.9 |
| 20260508224549 | 11 | 317 | 12.9 | 27.4 | 0.00 | 0.00 | 0.00 | 32 | 1009.0 |
| 20260508223044 | 12 | 265 | 11.3 | 24.1 | 0.00 | 0.00 | 0.00 | 31 | 1008.8 |
| 20260508221541 | 12 | 247 | 12.9 | 22.5 | 0.00 | 0.00 | 0.00 | 28 | 1008.7 |
| 20260508220109 | 12 | 252 | 12.9 | 27.4 | 0.00 | 0.00 | 0.00 | 30 | 1008.6 |
| 20260508214549 | 11 | 306 | 16.1 | 32.2 | 0.00 | 0.00 | 0.00 | 31 | 1008.6 |
| 20260508213046 | 12 | 298 | 20.9 | 38.6 | 0.00 | 0.00 | 0.00 | 28 | 1008.4 |
| 20260508211547 | 12 | 306 | 17.7 | 33.8 | 0.00 | 0.00 | 0.00 | 30 | 1008.4 |
| 20260508210045 | 12 | 283 | 11.3 | 25.7 | 0.00 | 0.00 | 0.00 | 33 | 1008.2 |
| 20260508204543 | 12 | 313 | 11.3 | 22.5 | 0.00 | 0.00 | 0.00 | 35 | 1008.2 |
| 20260508203048 | 12 | 275 | 17.7 | 32.2 | 0.00 | 0.00 | 0.00 | 31 | 1007.9 |
| 20260508201548 | 11 | 316 | 12.9 | 33.8 | 0.00 | 0.00 | 0.00 | 34 | 1007.9 |
| 20260508200046 | 12 | 277 | 14.5 | 29.0 | 0.00 | 0.00 | 0.00 | 34 | 1007.8 |
| 20260508194542 | 11 | 325 | 12.9 | 33.8 | 0.00 | 0.00 | 0.00 | 34 | 1007.7 |
| 20260508193047 | 12 | 309 | 16.1 | 32.2 | 0.00 | 0.00 | 0.00 | 33 | 1007.5 |
| 20260508191543 | 12 | 284 | 16.1 | 33.8 | 0.00 | 0.00 | 0.00 | 31 | 1007.7 |
| 20260508190103 | 12 | 326 | 9.7 | 30.6 | 0.00 | 0.00 | 0.00 | 35 | 1007.5 |
| 20260508184551 | 13 | 307 | 20.9 | 38.6 | 0.00 | 0.00 | 0.00 | 33 | 1007.4 |
| 20260508183048 | 12 | 266 | 19.3 | 37.0 | 0.00 | 0.00 | 0.00 | 34 | 1007.3 |
| 20260508181605 | 12 | 316 | 20.9 | 35.4 | 0.00 | 0.00 | 0.00 | 31 | 1007.3 |
| 20260508180048 | 12 | 323 | 16.1 | 30.6 | 0.00 | 0.00 | 0.00 | 31 | 1007.3 |
| 20260508174549 | 12 | 254 | 12.9 | 24.1 | 0.00 | 0.00 | 0.00 | 29 | 1007.3 |
| 20260508173046 | 12 | 290 | 11.3 | 32.2 | 0.00 | 0.00 | 0.00 | 28 | 1007.2 |
| 20260508171545 | 12 | 261 | 9.7 | 25.7 | 0.00 | 0.00 | 0.00 | 31 | 1007.2 |
| 20260508170046 | 12 | 5 | 8.0 | 33.8 | 0.00 | 0.00 | 0.00 | 29 | 1007.0 |
| 20260508164541 | 11 | 286 | 14.5 | 25.7 | 0.00 | 0.00 | 0.00 | 33 | 1007.0 |
| 20260508163048 | 11 | 308 | 11.3 | 20.9 | 0.00 | 0.00 | 0.00 | 31 | 1007.3 |
| 20260508161546 | 11 | 344 | 9.7 | 30.6 | 0.00 | 0.00 | 0.00 | 33 | 1007.4 |
| 20260508160047 | 11 | 242 | 14.5 | 27.4 | 0.00 | 0.00 | 0.00 | 31 | 1007.4 |
| 20260508154546 | 11 | 316 | 14.5 | 24.1 | 0.00 | 0.00 | 0.00 | 36 | 1007.6 |
| 20260508153044 | 11 | 254 | 14.5 | 24.1 | 0.00 | 0.00 | 0.00 | 40 | 1007.7 |
| 20260508151540 | 11 | 286 | 11.3 | 27.4 | 0.00 | 0.00 | 0.00 | 37 | 1007.6 |
| 20260508150046 | 11 | 295 | 16.1 | 30.6 | 0.00 | 0.00 | 0.00 | 40 | 1007.8 |
| 20260508144548 | 11 | 282 | 12.9 | 24.1 | 0.00 | 0.00 | 0.00 | 38 | 1007.9 |
| 20260508143051 | 11 | 311 | 17.7 | 32.2 | 0.00 | 0.00 | 0.00 | 35 | 1007.9 |
| 20260508141555 | 11 | 315 | 16.1 | 32.2 | 0.00 | 0.00 | 0.00 | 37 | 1007.9 |
| 20260508140041 | 11 | 254 | 14.5 | 27.4 | 0.00 | 0.00 | 0.00 | 40 | 1008.1 |
| 20260508134558 | 10 | 256 | 12.9 | 25.7 | 0.00 | 0.00 | 0.00 | 40 | 1008.2 |
| 20260508133045 | 10 | 279 | 14.5 | 22.5 | 0.00 | 0.00 | 0.00 | 43 | 1008.4 |
| 20260508131546 | 10 | 288 | 11.3 | 22.5 | 0.00 | 0.00 | 0.00 | 45 | 1008.5 |
| 20260508130046 | 10 | 273 | 11.3 | 19.3 | 0.00 | 0.00 | 0.00 | 47 | 1008.5 |
| 20260508124542 | 9 | 269 | 11.3 | 20.9 | 0.00 | 0.00 | 0.00 | 47 | 1008.6 |
| 20260508123058 | 8 | 259 | 6.4 | 17.7 | 0.00 | 0.00 | 0.00 | 50 | 1008.6 |
| 20260508121546 | 8 | 238 | 9.7 | 16.1 | 0.00 | 0.00 | 0.00 | 51 | 1008.6 |
| 20260508120050 | 7 | 285 | 6.4 | 12.9 | 0.00 | 0.00 | 0.00 | 52 | 1008.5 |
| 20260508114549 | 7 | 246 | 6.4 | 12.9 | 0.00 | 0.00 | 0.00 | 55 | 1008.5 |
| 20260508113045 | 6 | 286 | 8.0 | 14.5 | 0.00 | 0.00 | 0.00 | 54 | 1008.5 |
| 20260508111548 | 6 | 269 | 6.4 | 11.3 | 0.00 | 0.00 | 0.00 | 57 | 1008.4 |
| 20260508110048 | 5 | 248 | 3.2 | 6.4 | 0.00 | 0.00 | 0.00 | 61 | 1008.3 |
| 20260508104546 | 3 | 275 | 3.2 | 6.4 | 0.00 | 0.00 | 0.00 | 64 | 1008.2 |
| 20260508103047 | 3 | 271 | 4.8 | 9.7 | 0.00 | 0.00 | 0.00 | 65 | 1008.0 |
| 20260508101541 | 2 | 269 | 4.8 | 9.7 | 0.00 | 0.00 | 0.00 | 65 | 1007.9 |
| 20260508100040 | 3 | 264 | 1.6 | 6.4 | 0.00 | 0.00 | 0.00 | 63 | 1007.9 |
| 20260508094608 | 3 | 248 | 4.8 | 12.9 | 0.00 | 0.00 | 0.00 | 59 | 1007.7 |
| 20260508093046 | 3 | 284 | 3.2 | 11.3 | 0.00 | 0.00 | 0.00 | 57 | 1007.5 |
| 20260508091546 | 3 | 275 | 4.8 | 9.7 | 0.00 | 0.00 | 0.00 | 58 | 1007.4 |
| 20260508090049 | 5 | 275 | 3.2 | 11.3 | 0.00 | 0.00 | 0.00 | 55 | 1007.3 |
| 20260508084542 | 4 | 274 | 4.8 | 11.3 | 0.00 | 0.00 | 0.00 | 54 | 1007.0 |
| 20260508083048 | 4 | 309 | 4.8 | 9.7 | 0.00 | 0.00 | 0.00 | 55 | 1006.8 |
| 20260508081609 | 5 | 309 | 4.8 | 12.9 | 0.00 | 0.00 | 0.00 | 54 | 1006.7 |
| 20260508080041 | 5 | 300 | 6.4 | 12.9 | 0.00 | 0.00 | 0.00 | 53 | 1006.6 |
| 20260508074541 | 5 | 284 | 6.4 | 12.9 | 0.00 | 0.00 | 0.00 | 54 | 1006.6 |
| 20260508073047 | 4 | 312 | 3.2 | 6.4 | 0.00 | 0.00 | 0.00 | 57 | 1006.5 |
| 20260508071549 | 5 | 304 | 3.2 | 9.7 | 0.00 | 0.00 | 0.00 | 57 | 1006.5 |
| 20260508070048 | 4 | 297 | 4.8 | 8.0 | 0.00 | 0.00 | 0.00 | 58 | 1006.5 |
| 20260508064542 | 5 | 302 | 3.2 | 6.4 | 0.00 | 0.00 | 0.00 | 58 | 1006.5 |
| 20260508063055 | 5 | 296 | 4.8 | 11.3 | 0.00 | 0.00 | 0.00 | 52 | 1006.7 |
| 20260508061552 | 6 | 301 | 4.8 | 11.3 | 0.00 | 0.00 | 0.00 | 51 | 1006.8 |
| 20260508060053 | 6 | 311 | 4.8 | 12.9 | 0.00 | 0.00 | 0.00 | 50 | 1007.0 |
| 20260508054545 | 5 | 307 | 6.4 | 12.9 | 0.00 | 0.00 | 0.00 | 53 | 1007.1 |
| 20260508053044 | 6 | 323 | 1.6 | 6.4 | 0.00 | 0.00 | 0.00 | 48 | 1007.2 |
| 20260508051542 | 6 | 326 | 3.2 | 12.9 | 0.00 | 0.00 | 0.00 | 46 | 1007.3 |
| 20260508050048 | 6 | 314 | 4.8 | 14.5 | 0.00 | 0.00 | 0.00 | 46 | 1007.3 |
| 20260508044547 | 6 | 300 | 4.8 | 9.7 | 0.00 | 0.00 | 0.00 | 47 | 1007.4 |
| 20260508043051 | 6 | 319 | 6.4 | 12.9 | 0.00 | 0.00 | 0.00 | 47 | 1007.4 |
| 20260508041541 | 7 | 329 | 8.0 | 14.5 | 0.00 | 0.00 | 0.00 | 49 | 1007.3 |
| 20260508040050 | 7 | 309 | 4.8 | 11.3 | 0.00 | 0.00 | 0.00 | 47 | 1007.3 |
| 20260508034548 | 7 | 318 | 6.4 | 14.5 | 0.00 | 0.13 | 0.00 | 47 | 1007.5 |
| 20260508033049 | 7 | 304 | 9.7 | 14.5 | 0.00 | 0.13 | 0.00 | 47 | 1007.3 |
| 20260508031546 | 8 | 332 | 4.8 | 14.5 | 0.00 | 0.13 | 0.00 | 45 | 1007.5 |